This is the latest recevied weather packets stored in our database for station/object WS2Z. If no packets are shown the sender has not sent any weather packets the latest 10 day(s).
| Time | Temp. | Humidity | Pressure | Rain* | Wind** | Luminosity | Snow |
|---|---|---|---|---|---|---|---|
| 1777387221 | 27.78° C | 64% | 1019.3 hPa | 0 mm | - | 73 W/m² | - |
| 1777386916 | 27.78° C | 67% | 1019.4 hPa | 0 mm | - | 68 W/m² | - |
| 1777386614 | 27.78° C | 70% | 1019.4 hPa | 0 mm | - | 65 W/m² | - |
| 1777386310 | 27.22° C | 69% | 1019.4 hPa | 0 mm | - | 198 W/m² | - |
| 1777386008 | 27.78° C | 69% | 1019.4 hPa | 0 mm | - | 431 W/m² | - |
| 1777385704 | 27.22° C | 70% | 1019.2 hPa | 0 mm | - | 438 W/m² | - |
| 1777385401 | 26.67° C | 72% | 1019.5 hPa | 0 mm | - | 552 W/m² | - |
| 1777385098 | 26.67° C | 71% | 1019.4 hPa | 0 mm | - | 537 W/m² | - |
| 1777384794 | 26.67° C | 73% | 1019.4 hPa | 0 mm | - | 518 W/m² | - |
| 1777384490 | 25.56° C | 75% | 1019.5 hPa | 0 mm | - | 507 W/m² | - |
| 1777384184 | 25° C | 79% | 1019.4 hPa | 0 mm | - | 489 W/m² | - |
| 1777383882 | 23.89° C | 82% | 1019.4 hPa | 0 mm | - | 472 W/m² | - |
| 1777383577 | 23.33° C | 82% | 1019.5 hPa | 0 mm | - | 452 W/m² | - |
| 1777383274 | 23.33° C | 82% | 1019.4 hPa | 0 mm | - | 435 W/m² | - |
| 1777382971 | 22.78° C | 83% | 1019.5 hPa | 0 mm | - | 417 W/m² | - |
| 1777382666 | 22.78° C | 84% | 1019.4 hPa | 0 mm | - | 402 W/m² | - |
| 1777382362 | 22.78° C | 84% | 1019.4 hPa | 0 mm | - | 385 W/m² | - |
| 1777382059 | 22.78° C | 85% | 1019.2 hPa | 0 mm | - | 362 W/m² | - |
| 1777381755 | 22.22° C | 85% | 1019.3 hPa | 0 mm | - | 343 W/m² | - |
| 1777381449 | 22.22° C | 87% | 1019.2 hPa | 0 mm | - | 322 W/m² | - |
| 1777381145 | 21.67° C | 86% | 1019.2 hPa | 0 mm | - | 217 W/m² | - |
| 1777380843 | 21.67° C | 86% | 1019.2 hPa | 0 mm | - | 57 W/m² | - |
| 1777380540 | 21.67° C | 86% | 1019.1 hPa | 0 mm | - | 51 W/m² | - |
| 1777380236 | 21.67° C | 87% | 1019.3 hPa | 0 mm | - | 51 W/m² | - |
| 1777379932 | 21.67° C | 87% | 1019.2 hPa | 0 mm | - | 50 W/m² | - |
* Rain latest hour (hover to see other rain measurements)
** Current wind speed in m/s (hover to see current wind gust speed)